星链-5722 (STARLINK-5722 )

导读

STARLINK-5722是美国太空探索技术公司SpaceX星链卫星星座的一员,于2023年2月12日发射。星链项目旨在构建全球卫星互联网通信系统,该卫星入轨后,为星座网络提供扩容,助力提升全球范围内,尤其是偏远地区的互联网覆盖服务能力,服务全球网络连接需求。

基本信息
目录编号:
55610
目录名称:
STARLINK-5722
国际标识:
2023-020AT
轨道中心:
EARTH
卫星名称:
星链-5722
卫星全名:
星链-5722 (STARLINK-5722 )
卫星状态:
在轨 (已飞行1219 天)
发射日期:
2023-02-12 UTC
国别 :
美国 (US)
星等 :
--
轨道信息
数据来源 国际轨道数据 AOE轨道数据
星历时间 2026-06-15T00:57:32+0800
9小时前
查看轨道信息
2026-06-13T06:00:00+0800
2天前
查看轨道信息
半长轴 6861.213km 6861.142km
偏心率 0.0000995 0.000022
轨道倾角 43.002° 43.001°
近地点辐角 271.185° 209.584°
升交点赤经 166.594° 176.705°
平近点角 88.889° 15.544°
近地点 482.393km 482.854km
远地点 483.759km 483.156km
周期 94.267分钟 94.266分钟
每日圈数 15.275711 15.27595
详细信息
固有亮度:
5
最大亮度:
2.5
卫星平台:
Starlink v1.5
覆盖范围:
全球
运营商:
太空探索技术公司
运营商所在国:
美国
制造商(研发单位):
太空探索技术公司
制造商所在国:
美国
使用方式:
暂无
卫星简介
星链(Starlink)计划是由太空探索技术公司(SpaceX)提出的一个巨型低轨卫星互联网星座项目,计划在2019年至2024年间在太空搭建由约1.2万颗卫星组成的“星链”网络,其中1584颗将部署在地球上空550千米处的近地轨道,并从2020年开始工作。该卫星仍在工作。
2D轨道图
3D轨道图
轨道高度分析图
轨道倾角分析图
轨道综合分析图
查看轨道综合分析图